Regional Weather Roundup
Issued by NWS Sterling, VA

Home | Current Version | Previous Version | Graphics & Text | Print | Product List | Glossary On
Versions: 1 2 3 4 5 6 7 8 9 10 11 12 13 14 15 16 17 18 19 20 21 22 23 24 25 26 27 28 29 30 31 32 33 34 35 36 37 38 39 40 41 42 43 44 45 46 47 48 49 50
000
ASUS41 KLWX 022210
RWRLWX

REGIONAL WEATHER ROUNDUP
NATIONAL WEATHER SERVICE BALTIMORE MD/WASHINGTON DC
600 PM EDT THU JUL 02 2015

Note: "FAIR" indicates few or no clouds below 12,000 feet
with no significant weather and/or obstructions to visibility.
 TC=TEMPERATURE CELSIUS

 * =Non NWS site. Station does not report precipitation (e.g. rain,
    snow, etc.), thunder, or fog.

DCZ001-MDZ009-015-VAZ040>042-051-053>054-022300-
WASHINGTON METRO

CITY           SKY/WX    TMP DP  RH WIND       PRES   REMARKS
WASHINGTON NAT CLOUDY    77  66  68 CALM      29.89F
DULLES         CLOUDY    73  61  65 N3        29.89F
ANDREWS AFB    CLOUDY    71  67  85 SE5       29.88F
FT BELVOIR     CLOUDY    74  65  74 NW5       29.88F
COLLEGE PARK*  CLOUDY    73  68  83 CALM      29.88F
LEESBURG*      CLOUDY    73  68  83 S6        29.91S
MANASSAS*      CLOUDY    73  64  73 N5        29.89F
GAITHERSBURG*  CLOUDY    72  64  78 CALM      29.93F

$$

MDZ006>007-011-014-022300-
BALTIMORE METRO

CITY           SKY/WX    TMP DP  RH WIND       PRES   REMARKS
BWI AIRPORT    CLOUDY    72  65  78 CALM      29.88F
MD SCIENCE CTR   N/A     74  62  66 MISG      29.88F
MARTIN STATE   CLOUDY    73  68  83 CALM      29.89F
ANNAPOLIS      CLOUDY    72  63  73 CALM      29.88F
FORT MEADE*    CLOUDY    70  64  83 CALM      29.91S

$$

MDZ012-015-019>023-022300-
MARYLAND EASTERN SHORE

CITY           SKY/WX    TMP DP  RH WIND       PRES   REMARKS
OCEAN CITY     CLOUDY    71  67  87 NE9       29.86S FOG
SALISBURY      CLOUDY    72  67  84 NE6       29.86F HAZE
BAY BRIDGE AP*   N/A     72  63  73 CALM      29.88F
CAMBRIDGE*     CLOUDY    72  64  78 N6        29.87S
EASTON*        LGT RAIN  72  72 100 CALM      29.92F

$$

MDZ017>025-022300-
SOUTHERN MARYLAND

CITY           SKY/WX    TMP DP  RH WIND       PRES   REMARKS
PATUXENT RIVER CLOUDY    73  65  75 N10       29.88R
ST INIGOES     CLOUDY    75  66  73 VRB6      29.87S
LEONARDTOWN*   CLOUDY    72  63  73 CALM      29.90S

$$

MDZ003>005-022300-
NORTH CENTRAL MARYLAND

CITY           SKY/WX    TMP DP  RH WIND       PRES   REMARKS
FREDERICK*     MOSUNNY   73  68  83 CALM      29.92F FOG
HAGERSTOWN APT CLOUDY    75  62  64 VRB5      29.90F
WESTMINSTER*   CLOUDY    72  66  83 CALM      29.91S

$$

MDZ501>502-022300-
WESTERN MARYLAND

CITY           SKY/WX    TMP DP  RH WIND       PRES   REMARKS
OAKLAND*       CLOUDY    64  64 100 NW5       29.99F
CUMBERLAND*    CLOUDY    75  63  64 CALM      29.93F

$$

VAZ025>031-022300-
SHENANDOAH VALLEY

CITY           SKY/WX    TMP DP  RH WIND       PRES   REMARKS
WINCHESTER*    CLOUDY    73  64  73 S3        29.90F
FRONT ROYAL*   FAIR      72  66  83 CALM      29.90F
LURAY*         FAIR      73  66  78 CALM      29.91F
NEW MARKET*    FAIR      72  66  80 CALM      29.90S
STAUNTON*      CLOUDY    74  63  70 CALM      29.94F
WAYNESBORO*    FAIR      69  63  79 CALM      29.94S

$$

WVZ021-048>050-054>055-022300-
EASTERN WEST VIRGINIA PANHANDLE

CITY           SKY/WX    TMP DP  RH WIND       PRES   REMARKS
MARTINSBURG    CLOUDY    74  66  76 SE5       29.90F
PETERSBURG*    CLOUDY    75  60  60 CALM      29.92F

$$

VAZ036>039-050-022300-
CENTRAL FOOTHILLS

CITY           SKY/WX    TMP DP  RH WIND       PRES   REMARKS
CHARLOTTESVILL CLOUDY    75  65  70 CALM      29.89F
CULPEPER*      CLOUDY    73  65  78 CALM      29.90F
ORANGE*        CLOUDY    73  64  73 CALM      29.91F
GORDONSVILLE*  FAIR      73  64  73 CALM      29.90S
WARRENTON*     FAIR      73  67  80 NE3       29.88F

$$

VAZ055>057-022300-
NORTH AND CENTRAL PIEDMONT

CITY           SKY/WX    TMP DP  RH WIND       PRES   REMARKS
FREDERICKSBRG* CLOUDY    76  66  71 N5        29.88S
STAFFORD*      CLOUDY    72  64  76 NW3       29.93F

$$

NCZ024-NYZ072-PAZ021-071-VAZ022-071-022300-
OTHER REGIONAL OBSERVATIONS

CITY           SKY/WX    TMP DP  RH WIND       PRES   REMARKS
NEW YORK CITY  PTSUNNY   76  59  55 S3        29.89S
PHILADELPHIA   CLOUDY    75  63  66 CALM      29.87F
PITTSBURGH     PTSUNNY   77  54  44 NW8       29.92F
ROANOKE        CLOUDY    74  63  68 NW6       29.94F
RICHMOND       CLOUDY    76  67  73 N9        29.88R
RALEIGH        PTSUNNY   82  68  62 CALM      29.87S

$$

ANZ530>537-022300-
MARINE OBSERVATIONS

STATION/POSITION TIME  TEMP    WIND        PRES
                       AIR SEA DIR/SP/G
                 (UTC) (F)     (DEG/KT/KT) (MB)
THOMAS PT LIGHT  NOT AVBL
BALT KEY BRIDGE  2100   73      90/  6/  6 1012.0F
COVE POINT       2100   72      40/ 11/ 13 1012.4S
LEWISETTA        2100   74 81   30/  6/  9 1011.2F
SOLOMONS ISLAND  2100      79                N/A
PINEY POINT      2100           30/  8/ 10   N/A

$$




USA.gov is the U.S. government's official web portal to all federal, state and local government web resources and services.